This is the latest recevied weather packets stored in our database for station/object EB2EMZ-W. If no packets are shown the sender has not sent any weather packets the latest 10 day(s).
| Time | Temp. | Humidity | Pressure | Rain* | Wind** | Luminosity | Snow |
|---|---|---|---|---|---|---|---|
| 1787891989 | 17.78° C | 37% | 1000 hPa | 0 mm | - | - | - |
| 1787890168 | 17.78° C | 36% | 1000 hPa | 0 mm | - | - | - |
| 1787888348 | 18.33° C | 37% | 1000 hPa | 0 mm | - | - | - |
| 1787886527 | 18.33° C | 36% | 1000 hPa | 0 mm | - | - | - |
| 1787884708 | 18.33° C | 36% | 1000 hPa | 0 mm | - | - | - |
| 1787882886 | 18.89° C | 35% | 1000 hPa | 0 mm | - | - | - |
| 1787881066 | 19.44° C | 34% | 1000 hPa | 0 mm | - | - | - |
| 1787879247 | 18.89° C | 34% | 1000 hPa | 0 mm | - | - | - |
| 1787877427 | 19.44° C | 34% | 1000 hPa | 0 mm | - | - | - |
| 1787875607 | 19.44° C | 34% | 1000 hPa | 0 mm | - | - | - |
| 1787873787 | 20° C | 33% | 1000 hPa | 0 mm | - | - | - |
| 1787871121 | 20° C | 32% | 999 hPa | 0 mm | - | - | - |
| 1787869302 | 21.11° C | 32% | 998 hPa | 0 mm | - | - | - |
| 1787867481 | 21.11° C | 30% | 998 hPa | 0 mm | - | - | - |
| 1787865661 | 21.67° C | 30% | 998 hPa | 0 mm | - | - | - |
| 1787863840 | 22.22° C | 29% | 997 hPa | 0 mm | - | - | - |
| 1787862020 | 22.22° C | 29% | 997 hPa | 0 mm | - | - | - |
| 1787860200 | 22.78° C | 29% | 996 hPa | 0 mm | - | - | - |
| 1787858379 | 23.33° C | 27% | 996 hPa | 0 mm | - | - | - |
| 1787856558 | 23.33° C | 27% | 996 hPa | 0 mm | - | - | - |
| 1787854739 | 23.89° C | 24% | 995 hPa | 0 mm | - | - | - |
| 1787852919 | 36.11° C | 11% | 995 hPa | 0 mm | - | - | - |
| 1787851098 | 32.78° C | 18% | 995 hPa | 0 mm | - | - | - |
| 1787849277 | 24.44° C | 26% | 996 hPa | 0 mm | - | - | - |
| 1787847458 | 25.56° C | 21% | 996 hPa | 0 mm | - | - | - |
* Rain latest hour (hover to see other rain measurements)
** Current wind speed in m/s (hover to see current wind gust speed)